[[{"header":{"parameterUnit":"m.s-1","parameterCategory":1,"la1":30.2992,"la2":30.254,"lo1":-89.0895,"lo2":-89.0443,"dy":0.0025,"dx":0.0025,"nx":19,"ny":19,"refTime":"2026-04-16T21:00:00:Z","depth":0,"parameterNumber":2,"parameterNumberName":"U-component_of_WINDS"},"data":[0,0,0,0.1403,0.1403,0.1396,0.1396,0.1394,0.1394,0,0,0,0,0,0,0,0,0,0,0,0.1409,0.1409,0.1403,0.1403,0.1396,0.1396,0.1394,0.1394,0,0,0,0,0,0,0,0,0,0,0,0.1409,0.1409,0.141,0.1403,0.1396,0.1396,0.1394,0.1397,0,0,0,0,0,0,0,0,0,0,0.1402,0.1412,0.1409,0.141,0.1403,0.1396,0.1396,0.1397,0.1397,0.14,0,0.1404,0,0.1399,0.1394,0.1394,0,0,0,0.14,0.1413,0.1407,0.141,0.1403,0.1396,0.1398,0.1397,0.1396,0.14,0.1404,0.1404,0.1399,0.1394,0.1394,0.1425,0.1425,0,0,0.14,0.141,0.1407,0.1407,0.1409,0.1398,0.1398,0.1396,0.1402,0.1404,0.1404,0.1399,0.1394,0.1394,0.1424,0.1425,0,0,0,0.1403,0.1411,0.1405,0.1407,0.1405,0.1398,0.1398,0.1402,0.1399,0.1404,0.1399,0.1394,0.1394,0.1424,0.1424,0.1449,0,0,0,0.1403,0.1413,0.1405,0.1412,0.1406,0.1404,0.1404,0.1399,0.1399,0.1399,0.1394,0.1395,0.1424,0.1424,0.1447,0.1458,0,0,0,0.1408,0.1413,0.1414,0.1412,0.141,0.1403,0.14,0.1399,0.1396,0.1394,0.1395,0.1423,0.1424,0.1446,0.1456,0.1469,0,0,0,0.1417,0.1436,0.1414,0.1434,0.141,0.1419,0.14,0.1406,0.1408,0.1394,0.1424,0.1424,0.1446,0.1455,0.1468,0.1481,0.1488,0,0,0.1447,0.144,0.1451,0.1431,0.1446,0.1419,0.1437,0.1429,0.1419,0.1423,0.1424,0.1448,0.1456,0.1469,0.1522,0.1527,0,0,0,0.1464,0.1472,0.1474,0.1475,0.1469,0.1464,0.1452,0.1448,0.1451,0.1424,0.1455,0.146,0.1467,0.1473,0.1477,0.1482,0.1428,0.1428,0.1427,0.1523,0.1509,0.1525,0.151,0.1512,0.1498,0.1497,0.149,0.1477,0.1484,0.1485,0.1519,0.1527,0.153,0.1535,0.1491,0.1492,0.1492,0.1492,0.1566,0.1574,0.1554,0.1563,0.1547,0.1554,0.1541,0.1531,0.1535,0.1518,0.1523,0.1505,0.1536,0.154,0.1493,0.1493,0.1493,0.1493,0.1493,0.1602,0.1604,0.1599,0.1599,0.16,0.1584,0.1588,0.1574,0.1561,0.1566,0.1566,0.1565,0.1563,0.1567,0.1567,0.1567,0.1567,0.1567,0.1567,0.1642,0.1636,0.1641,0.1635,0.1634,0.163,0.1615,0.1613,0.1607,0.1596,0.1596,0.1581,0.1542,0.1533,0.1569,0.1569,0.1569,0.1569,0.1568,0.1691,0.1677,0.1686,0.1684,0.1675,0.1677,0.1658,0.1655,0.1651,0.1654,0.1637,0.161,0.1603,0.1599,0.1591,0.164,0.164,0.164,0.164,0.1722,0.1716,0.1721,0.1719,0.1715,0.1699,0.1708,0.1697,0.1682,0.1679,0.167,0.1658,0.1654,0.1648,0.1644,0.1636,0.1696,0.1696,0.1696,0.1751,0.1744,0.1755,0.174,0.1731,0.1724,0.1732,0.173,0.1711,0.1698,0.1676,0.1673,0.1654,0.1648,0.1635,0.1628,0.1613,0,0]},{"header":{"parameterUnit":"m.s-1","parameterCategory":1,"la1":30.2992,"la2":30.254,"lo1":-89.0895,"lo2":-89.0443,"dy":0.0025,"dx":0.0025,"nx":19,"ny":19,"refTime":"2026-04-16T21:00:00:Z","depth":0,"parameterNumber":3,"parameterNumberName":"V-component_of_WINDS"},"data":[0,0,0,4.1828,4.183,4.1913,4.1913,4.2024,4.2025,0,0,0,0,0,0,0,0,0,0,0,4.181,4.1811,4.1828,4.1831,4.1913,4.1913,4.2024,4.2025,0,0,0,0,0,0,0,0,0,0,0,4.181,4.1811,4.1812,4.1831,4.1913,4.1913,4.2023,4.1958,0,0,0,0,0,0,0,0,0,0,4.1877,4.1867,4.1811,4.1812,4.1831,4.1913,4.1913,4.1955,4.1962,4.199,0,4.2018,0,4.2024,4.2033,4.2033,0,0,0,4.1825,4.1861,4.1878,4.1812,4.1832,4.1913,4.1874,4.1959,4.1967,4.1999,4.202,4.2024,4.2026,4.2034,4.2034,4.2219,4.222,0,0,4.182,4.1827,4.1873,4.1884,4.1875,4.1872,4.1877,4.1964,4.1985,4.202,4.2026,4.2028,4.2035,4.2035,4.2218,4.2219,0,0,0,4.1811,4.1824,4.1839,4.188,4.1895,4.1874,4.188,4.1981,4.1986,4.2027,4.2029,4.2035,4.2037,4.2216,4.2218,4.2283,0,0,0,4.1808,4.1819,4.1838,4.1843,4.1893,4.194,4.1896,4.198,4.199,4.2028,4.2035,4.2038,4.2215,4.2217,4.2278,4.2311,0,0,0,4.1802,4.1818,4.1833,4.1843,4.1879,4.1938,4.1947,4.1982,4.1991,4.2033,4.2038,4.2214,4.2217,4.2274,4.2304,4.2362,0,0,0,4.1797,4.1886,4.1834,4.1933,4.1879,4.1979,4.1947,4.202,4.2064,4.2036,4.2215,4.2218,4.2273,4.23,4.2358,4.2412,4.2435,0,0,4.1913,4.19,4.1959,4.1914,4.2026,4.1965,4.2086,4.2117,4.2112,4.2183,4.2187,4.228,4.2304,4.2361,4.2565,4.2584,0,0,0,4.1997,4.2039,4.2067,4.2112,4.2142,4.2169,4.2182,4.2194,4.2254,4.2152,4.2316,4.233,4.2363,4.2389,4.2405,4.2432,4.223,4.223,4.223,4.2169,4.2163,4.2258,4.2262,4.2306,4.2321,4.2354,4.2372,4.2349,4.2389,4.2409,4.2534,4.2565,4.2576,4.2606,4.2438,4.2438,4.2438,4.2438,4.2337,4.2396,4.2368,4.2451,4.2442,4.251,4.2528,4.251,4.2571,4.2518,4.2547,4.2489,4.2597,4.2622,4.2443,4.2442,4.2442,4.2441,4.2441,4.2449,4.2475,4.2492,4.2557,4.2608,4.2607,4.2669,4.2658,4.2647,4.2676,4.2696,4.2695,4.2692,4.2687,4.2687,4.2688,4.2688,4.2688,4.2689,4.2557,4.2573,4.2628,4.267,4.2698,4.2733,4.2751,4.2777,4.2803,4.2789,4.279,4.2763,4.261,4.2572,4.2695,4.2694,4.2693,4.2693,4.2692,4.2728,4.2689,4.2774,4.2803,4.285,4.2902,4.2889,4.2944,4.2964,4.2994,4.2962,4.2852,4.2836,4.2823,4.2791,4.2964,4.2964,4.2964,4.2964,4.2822,4.2815,4.29,4.2947,4.2992,4.299,4.3083,4.3098,4.3105,4.3117,4.309,4.3047,4.3035,4.3027,4.3009,4.2979,4.3196,4.3197,4.3197,4.2926,4.2924,4.3007,4.3019,4.3056,4.3087,4.3175,4.3228,4.3228,4.3206,4.3126,4.3116,4.3046,4.3024,4.2999,4.2972,4.2917,0,0]}]]